Flag for U.S.A. Weather past 2 weeks in Anderson, South Carolina, U.S.A.

Now
50 °F

Sunny.


Feels Like: 46 °F
Forecast: 36 / 61 °F
Wind: 10 mph from East

Location: Anderson County Airport


UV Index: 5 (Moderate)

Visibility: 10 mi


Pressure: 30.34 "Hg

Humidity: 33%

Dew point: 22 °F

Location of AndersonLocation

Historic Weather in Anderson

°F

Anderson temperature yesterday

Maximum temperature yesterday: 65 °F (at 1:56 AM)
Minimum temperature yesterday: 40 °F (at 11:56 PM)
Average temperature yesterday: 59 °F

Past Weeks' High & Low Weather Summary

 TemperatureHumidityPressure
High84 °F (Apr 3, 4:56 PM)100% (Apr 7, 12:56 PM)30.35 "Hg (Apr 7, 12:56 PM)
Low35 °F (Apr 16, 6:56 AM)10% (Apr 2, 5:56 PM)29.63 "Hg (Apr 8, 3:56 PM)
Average61 °F61%29.99 "Hg
* Reported Apr 1 10:56 AM — Apr 16 10:56 AM, Anderson, Weather by CustomWeather, © 2014

Note: Actual official high and low records may vary slightly from our data, if they occured in-between our weather recording intervals... More about our weather records

Advertising

Historic Weather Conditions — Data for Previous 24 hours

 ConditionsComfort  
Time TempWeatherWind HumidityBarometerVisibility
10:56 AM
Apr 16
46 °FSunny.13 mph40%30.35 "Hg10 mi
9:56 AM44 °FSunny.14 mph45%30.34 "Hg10 mi
8:56 AM40 °FSunny.15 mph51%30.32 "Hg10 mi
7:56 AM37 °FClear.13 mph62%30.29 "Hg10 mi
6:56 AM35 °FClear.6 mph64%30.24 "Hg10 mi
5:56 AM36 °FClear.12 mph62%30.20 "Hg10 mi
4:56 AM36 °FClear.9 mph59%30.18 "Hg10 mi
3:56 AM37 °FClear.8 mph62%30.14 "Hg10 mi
2:56 AM36 °FClear.8 mph64%30.13 "Hg10 mi
1:56 AM37 °FClear.6 mph67%30.12 "Hg10 mi
12:56 AM38 °FClear.7 mph65%30.09 "Hg10 mi
11:56 PM
Apr 15
40 °FClear.No wind60%30.06 "Hg10 mi
10:56 PM43 °FClear.5 mph56%30.03 "Hg10 mi
9:56 PM44 °FClear.8 mph60%29.97 "Hg10 mi
8:56 PM47 °FSunny.13 mph56%29.94 "Hg10 mi
6:56 PM57 °FSunny.20 mph47%29.80 "Hg10 mi
5:56 PM62 °FOvercast.20 mph46%29.73 "Hg10 mi
4:56 PM63 °FScattered clouds.16 mph56%29.70 "Hg10 mi
3:56 PM63 °FScattered clouds.12 mph63%29.68 "Hg10 mi
2:56 PM62 °FPartly sunny.8 mph75%29.68 "Hg10 mi
1:56 PM60 °FCloudy.13 mph83%29.68 "Hg10 mi
1:03 PM62 °FLight rain. More clouds than sun.18 mph93%29.68 "Hg7 mi
12:56 PM64 °FRain. Fog.15 mph97%29.66 "Hg2 mi
Weather by CustomWeather, © 2014

See weather overview